[[{"header":{"parameterUnit":"m.s-1","parameterCategory":1,"la1":30.2991,"la2":30.254,"lo1":-89.0895,"lo2":-89.0444,"dy":0.0017,"dx":0.0017,"nx":28,"ny":28,"refTime":"2024-08-10T09:00:00:Z","depth":0,"parameterNumber":2,"parameterNumberName":"U-component_of_WINDS"},"data":[0,0,0,0,0,0,0,0,0,0,0,0,0,0,0,0,0,0,0,0,0,0,0,0,0,0,0,0,0,0,0,0,0,0,0,0,0,0,0,0,0,0,0,0,0,0,0,0,0,0,0,0,0,0,0,0,0,0,-2.6373,-2.6374,0,-2.6441,-2.6441,-2.6442,-2.6362,-2.6359,-2.6356,-2.6353,-2.6422,-2.6427,-2.6431,0,0,0,0,0,0,0,0,0,0,0,0,0,-2.6174,-2.6178,-2.6373,-2.6374,-2.6375,-2.6441,-2.6441,-2.6442,-2.6363,-2.6359,-2.6356,-2.6352,-2.6421,-2.6426,-2.6432,0,0,0,0,0,0,0,0,0,0,0,0,0,-2.6253,-2.618,-2.6373,-2.6343,-2.6341,-2.644,-2.6442,-2.6443,-2.6364,-2.6359,-2.6355,-2.635,-2.6419,-2.6426,-2.6433,-2.6565,0,0,-2.6454,-2.6457,0,0,0,0,0,0,0,0,-2.6249,-2.6261,-2.6347,-2.6345,-2.6343,-2.6388,-2.6397,-2.6484,-2.6365,-2.6355,-2.6353,-2.6348,-2.6415,-2.6422,-2.6444,-2.6568,-2.6571,-2.6454,-2.6459,-2.6462,-2.6464,0,0,0,0,0,0,0,-2.6244,-2.6257,-2.64,-2.6348,-2.6346,-2.6326,-2.6332,-2.6413,-2.6409,-2.6355,-2.635,-2.6359,-2.6413,-2.6438,-2.6445,-2.6572,-2.6454,-2.646,-2.6465,-2.6467,-2.6807,-2.6811,0,0,0,0,0,0,-2.6242,-2.6253,-2.6398,-2.6402,-2.6284,-2.6333,-2.634,-2.6378,-2.6408,-2.6408,-2.6363,-2.6355,-2.6428,-2.6437,-2.6447,-2.6603,-2.6462,-2.6468,-2.6472,-2.6802,-2.6808,-2.6813,0,0,0,0,0,0,-2.6238,-2.6255,-2.6395,-2.6326,-2.6342,-2.6341,-2.6385,-2.6382,-2.6407,-2.6413,-2.6412,-2.6389,-2.6425,-2.6438,-2.6536,-2.6605,-2.6471,-2.6477,-2.6796,-2.6804,-2.6811,-2.6917,0,0,0,0,0,0,-2.6232,-2.6254,-2.6305,-2.6328,-2.6346,-2.6483,-2.6389,-2.6387,-2.6419,-2.641,-2.6438,-2.6438,-2.6422,-2.6526,-2.6543,-2.6612,-2.6483,-2.679,-2.68,-2.6808,-2.6907,-2.6927,-2.6944,0,0,0,0,0,-2.6225,-2.6332,-2.6308,-2.6325,-2.6409,-2.6487,-2.6498,-2.6478,-2.6425,-2.6475,-2.6479,-2.6437,-2.6595,-2.6537,-2.6555,-2.6627,-2.6786,-2.6797,-2.6808,-2.6899,-2.6923,-2.6943,0,0,0,0,0,0,-2.6317,-2.6334,-2.6308,-2.6425,-2.6455,-2.6473,-2.6536,-2.6504,-2.655,-2.6539,-2.6512,-2.6519,-2.6624,-2.6635,-2.6571,-2.6756,-2.6681,-2.6697,-2.6745,-2.6768,-2.6786,-2.678,-2.6489,0,0,0,0,0,-2.6351,-2.6413,-2.6424,-2.6527,-2.6543,-2.6538,-2.6571,-2.6553,-2.6583,-2.6595,-2.6607,-2.6638,-2.6694,-2.6731,-2.6784,-2.6909,-2.6913,-2.6967,-2.6985,-2.7,-2.7014,-2.708,-2.7104,-2.6849,-2.6849,-2.6849,0,0,-2.6421,-2.6438,-2.6479,-2.6546,-2.6567,-2.6631,-2.6549,-2.6621,-2.6668,-2.6606,-2.6699,-2.6709,-2.6742,-2.6854,-2.6904,-2.6867,-2.7085,-2.7014,-2.7026,-2.7031,-2.7094,-2.7118,-2.7139,-2.6857,-2.6855,-2.6854,0,0,-2.6582,-2.6602,-2.6689,-2.6712,-2.6745,-2.6741,-2.6762,-2.6785,-2.6789,-2.6883,-2.6837,-2.6893,-2.6991,-2.7016,-2.7041,-2.7212,-2.7175,-2.723,-2.7325,-2.739,-2.741,-2.7428,-2.7488,-2.751,-2.7243,-2.7244,-2.7244,0,-2.6665,-2.676,-2.6737,-2.6813,-2.6843,-2.679,-2.6878,-2.6901,-2.695,-2.6972,-2.693,-2.7051,-2.707,-2.7187,-2.7228,-2.7251,-2.7274,-2.7226,-2.7409,-2.7427,-2.7443,-2.75,-2.7523,-2.725,-2.7249,-2.7249,-2.7248,0,-2.6861,-2.6928,-2.6994,-2.7043,-2.708,-2.7162,-2.7151,-2.7192,-2.7171,-2.7171,-2.7266,-2.7287,-2.7342,-2.7368,-2.7348,-2.7483,-2.7458,-2.7414,-2.7338,-2.7474,-2.7527,-2.7549,-2.7259,-2.7257,-2.7255,-2.7253,0,0,-2.7081,-2.7116,-2.714,-2.7161,-2.7194,-2.7246,-2.7324,-2.7378,-2.7414,-2.7449,-2.7514,-2.7598,-2.7557,-2.7586,-2.7568,-2.7626,-2.7759,-2.7573,-2.7574,-2.7606,-2.7907,-2.794,-2.7966,-2.7734,-2.7738,-2.7742,-2.7904,0,-2.7241,-2.7377,-2.7359,-2.749,-2.7551,-2.7502,-2.757,-2.7598,-2.76,-2.7652,-2.7654,-2.7714,-2.7655,-2.7672,-2.7727,-2.7731,-2.7819,-2.7719,-2.7794,-2.7797,-2.7786,-2.7993,-2.8028,-2.8181,-2.7925,-2.7928,-2.7931,0,-2.7447,-2.749,-2.7627,-2.765,-2.7675,-2.7737,-2.7785,-2.7835,-2.7866,-2.7863,-2.7896,-2.7868,-2.7946,-2.787,-2.7977,-2.791,-2.7939,-2.7946,-2.7952,-2.7957,-2.7871,-2.8004,-2.8229,-2.8251,-2.7963,-2.7961,-2.7958,0,-2.7592,-2.7685,-2.7778,-2.7798,-2.7828,-2.7872,-2.7887,-2.7913,-2.7946,-2.7988,-2.8009,-2.806,-2.8088,-2.8127,-2.8114,-2.806,-2.8224,-2.8146,-2.8223,-2.8224,-2.8259,-2.8257,-2.8491,-2.828,-2.828,-2.828,-2.8279,0,-2.7773,-2.7859,-2.7844,-2.7902,-2.7996,-2.7974,-2.8068,-2.8076,-2.81,-2.8157,-2.8119,-2.8174,-2.8153,-2.8207,-2.8197,-2.8287,-2.83,-2.8299,-2.8296,-2.8302,-2.8302,-2.832,-2.8309,-2.8286,-2.8284,-2.8283,-2.8282,0,-2.7951,-2.7945,-2.8044,-2.8064,-2.8071,-2.8139,-2.8156,-2.821,-2.821,-2.8283,-2.8299,-2.8298,-2.836,-2.835,-2.8419,-2.8412,-2.8524,-2.8508,-2.8514,-2.8509,-2.8586,-2.8579,-2.884,-2.8872,-2.8642,-2.8644,-2.8646,0,-2.8066,-2.8131,-2.8158,-2.8194,-2.8212,-2.8271,-2.8305,-2.8286,-2.8323,-2.8362,-2.8412,-2.847,-2.8515,-2.8615,-2.862,-2.8672,-2.8656,-2.8744,-2.8663,-2.8668,-2.8656,-2.8652,-2.8657,-2.8759,-2.8762,-2.8764,-2.8766,0,-2.8271,-2.8265,-2.8316,-2.8366,-2.8407,-2.8446,-2.848,-2.8512,-2.8496,-2.854,-2.8602,-2.8638,-2.8707,-2.8765,-2.8814,-2.8828,-2.8795,-2.8791,-2.8812,-2.8819,-2.8819,-2.8819,-2.8556,-2.8785,-2.8783,-2.8782,-2.8781,-2.878,-2.842,-2.8475,-2.8503,-2.8561,-2.8585,-2.8618,-2.8669,-2.8675,-2.8727,-2.8782,-2.8768,-2.8839,-2.8867,-2.8929,-2.8948,-2.9003,-2.897,-2.9,-2.9007,-2.9015,-2.9023,-2.8812,-2.9012,-2.9011,-2.9011,-2.901,-2.901,0,-2.8622,-2.8637,-2.8691,-2.874,-2.8786,-2.8751,-2.8787,-2.8827,-2.889,-2.8919,-2.8965,-2.9036,-2.9092,-2.9102,-2.9155,-2.9197,-2.9182,-2.9211,-2.9207,-2.9211,-2.905,-2.9027,-2.9221,-2.9221,-2.9221,-2.9221,-2.9221,-2.9221,-2.8732,-2.8823,-2.882,-2.8922,-2.8937,-2.9006,-2.9029,-2.9059,-2.9083,-2.9164,-2.9211,-2.9217,-2.9238,-2.9292,-2.9342,-2.9343,-2.9364,-2.9398,-2.9394,-2.9243,-2.9222,-2.9202,-2.918,-2.9403,-2.9404,-2.9549,-2.9551,-2.9552]},{"header":{"parameterUnit":"m.s-1","parameterCategory":1,"la1":30.2991,"la2":30.254,"lo1":-89.0895,"lo2":-89.0444,"dy":0.0017,"dx":0.0017,"nx":28,"ny":28,"refTime":"2024-08-10T09:00:00:Z","depth":0,"parameterNumber":3,"parameterNumberName":"V-component_of_WINDS"},"data":[0,0,0,0,0,0,0,0,0,0,0,0,0,0,0,0,0,0,0,0,0,0,0,0,0,0,0,0,0,0,0,0,0,0,0,0,0,0,0,0,0,0,0,0,0,0,0,0,0,0,0,0,0,0,0,0,0,0,-3.4242,-3.4242,0,-3.4231,-3.4231,-3.423,-3.4169,-3.4167,-3.4166,-3.4165,-3.4152,-3.4153,-3.4154,0,0,0,0,0,0,0,0,0,0,0,0,0,-3.421,-3.4211,-3.4242,-3.4242,-3.4242,-3.4231,-3.4231,-3.423,-3.4169,-3.4167,-3.4166,-3.4164,-3.4152,-3.4153,-3.4154,0,0,0,0,0,0,0,0,0,0,0,0,0,-3.4214,-3.4211,-3.4242,-3.421,-3.4207,-3.4231,-3.4231,-3.423,-3.417,-3.4167,-3.4165,-3.4163,-3.4151,-3.4153,-3.4154,-3.4208,0,0,-3.4159,-3.416,0,0,0,0,0,0,0,0,-3.4213,-3.4215,-3.4215,-3.4212,-3.4209,-3.4199,-3.4214,-3.4223,-3.417,-3.4184,-3.4165,-3.4162,-3.4169,-3.4169,-3.4172,-3.4207,-3.4207,-3.4159,-3.416,-3.4161,-3.4161,0,0,0,0,0,0,0,-3.4213,-3.4215,-3.4238,-3.4215,-3.4212,-3.4196,-3.4194,-3.4216,-3.4189,-3.4182,-3.4178,-3.4177,-3.4167,-3.4171,-3.4171,-3.4206,-3.4159,-3.416,-3.4161,-3.4162,-3.4282,-3.4284,0,0,0,0,0,0,-3.4218,-3.4215,-3.4238,-3.4237,-3.4206,-3.4198,-3.4196,-3.4204,-3.4189,-3.4184,-3.4179,-3.4175,-3.4169,-3.4169,-3.417,-3.423,-3.4161,-3.4162,-3.4163,-3.428,-3.4283,-3.4285,0,0,0,0,0,0,-3.4217,-3.422,-3.4239,-3.4225,-3.4226,-3.4201,-3.4211,-3.4205,-3.4209,-3.4186,-3.4181,-3.4188,-3.4167,-3.4168,-3.4198,-3.4229,-3.4163,-3.4164,-3.4277,-3.4281,-3.4284,-3.4351,0,0,0,0,0,0,-3.4217,-3.4221,-3.4241,-3.4226,-3.4227,-3.4268,-3.4213,-3.4207,-3.4211,-3.4205,-3.4193,-3.4189,-3.4166,-3.4196,-3.42,-3.423,-3.4165,-3.4274,-3.4279,-3.4283,-3.4346,-3.4356,-3.4365,0,0,0,0,0,-3.4216,-3.4261,-3.4243,-3.4246,-3.4253,-3.427,-3.427,-3.4243,-3.4214,-3.4234,-3.4219,-3.4189,-3.4225,-3.42,-3.4203,-3.4234,-3.4272,-3.4277,-3.4282,-3.4342,-3.4354,-3.4365,0,0,0,0,0,0,-3.4281,-3.4259,-3.4238,-3.428,-3.4277,-3.4259,-3.4284,-3.4258,-3.4263,-3.4257,-3.4223,-3.422,-3.4255,-3.4248,-3.422,-3.4284,-3.4243,-3.4249,-3.4287,-3.4299,-3.4308,-3.4309,-3.4167,0,0,0,0,0,-3.4301,-3.4317,-3.4296,-3.4335,-3.4334,-3.431,-3.4316,-3.4295,-3.4291,-3.4289,-3.4277,-3.4273,-3.4283,-3.4291,-3.4299,-3.4345,-3.434,-3.4367,-3.4377,-3.4385,-3.439,-3.4412,-3.4423,-3.4302,-3.4302,-3.4302,0,0,-3.4341,-3.433,-3.4343,-3.4348,-3.4343,-3.4359,-3.4309,-3.4329,-3.434,-3.4292,-3.4319,-3.431,-3.4304,-3.4341,-3.4357,-3.4336,-3.4423,-3.4392,-3.4398,-3.4399,-3.4418,-3.4429,-3.444,-3.4305,-3.4305,-3.4304,0,0,-3.4422,-3.4417,-3.4447,-3.4443,-3.4436,-3.4419,-3.4427,-3.4412,-3.4404,-3.4431,-3.4394,-3.4407,-3.4426,-3.4422,-3.4423,-3.45,-3.4472,-3.4504,-3.4554,-3.4575,-3.4585,-3.4593,-3.4619,-3.4629,-3.451,-3.451,-3.451,0,-3.4473,-3.4496,-3.4467,-3.4488,-3.4491,-3.4447,-3.4477,-3.4475,-3.4471,-3.4473,-3.445,-3.4472,-3.4465,-3.4499,-3.4518,-3.4521,-3.4527,-3.4505,-3.4586,-3.4594,-3.4601,-3.4625,-3.4635,-3.4514,-3.4513,-3.4513,-3.4513,0,-3.4558,-3.4575,-3.4601,-3.4597,-3.4603,-3.4629,-3.4602,-3.4611,-3.4589,-3.4574,-3.46,-3.459,-3.4595,-3.4601,-3.4581,-3.4633,-3.462,-3.4592,-3.455,-3.4617,-3.4639,-3.4648,-3.4519,-3.4518,-3.4517,-3.4516,0,0,-3.4681,-3.466,-3.4669,-3.4666,-3.4655,-3.4667,-3.469,-3.4694,-3.4701,-3.47,-3.4718,-3.4734,-3.4707,-3.4708,-3.4686,-3.4705,-3.4765,-3.4674,-3.4673,-3.469,-3.4819,-3.4839,-3.485,-3.4746,-3.4747,-3.4749,-3.4819,0,-3.4757,-3.4796,-3.4769,-3.4811,-3.4825,-3.4783,-3.4803,-3.4797,-3.4784,-3.4793,-3.4777,-3.4788,-3.4753,-3.4753,-3.477,-3.4754,-3.479,-3.4749,-3.476,-3.4761,-3.4762,-3.4862,-3.4884,-3.4951,-3.4827,-3.4829,-3.483,0,-3.4852,-3.4854,-3.4898,-3.4881,-3.4886,-3.4904,-3.4904,-3.4914,-3.4906,-3.4895,-3.4895,-3.4868,-3.4888,-3.4847,-3.4874,-3.4846,-3.485,-3.4842,-3.4844,-3.4843,-3.4799,-3.4863,-3.4971,-3.4981,-3.4844,-3.4842,-3.4842,0,-3.4935,-3.4949,-3.4976,-3.4975,-3.4956,-3.497,-3.4963,-3.4953,-3.4956,-3.4957,-3.4958,-3.4961,-3.4962,-3.4965,-3.4938,-3.4912,-3.4967,-3.4926,-3.4957,-3.4958,-3.497,-3.497,-3.508,-3.4975,-3.4975,-3.4974,-3.4974,0,-3.5022,-3.5051,-3.5012,-3.5029,-3.5059,-3.5027,-3.5057,-3.5045,-3.5036,-3.5049,-3.5013,-3.5026,-3.4991,-3.5,-3.498,-3.5003,-3.5005,-3.4995,-3.4989,-3.4998,-3.4999,-3.4998,-3.4993,-3.4977,-3.4976,-3.4976,-3.4975,0,-3.512,-3.5096,-3.5123,-3.5103,-3.5098,-3.5121,-3.5103,-3.5117,-3.51,-3.5117,-3.5119,-3.5092,-3.51,-3.5075,-3.5079,-3.5065,-3.51,-3.5087,-3.5102,-3.5098,-3.513,-3.5127,-3.5243,-3.5256,-3.5144,-3.5145,-3.5146,0,-3.5177,-3.5197,-3.5179,-3.5185,-3.5179,-3.519,-3.5192,-3.5161,-3.5166,-3.5157,-3.5172,-3.5177,-3.5179,-3.5194,-3.5175,-3.5178,-3.5164,-3.5204,-3.5164,-3.5171,-3.5162,-3.5161,-3.5162,-3.5212,-3.5214,-3.5215,-3.5216,0,-3.528,-3.5266,-3.5272,-3.5273,-3.5277,-3.5276,-3.5273,-3.528,-3.5246,-3.5253,-3.526,-3.5262,-3.5266,-3.5271,-3.5269,-3.5261,-3.5232,-3.5229,-3.5236,-3.5244,-3.5251,-3.5246,-3.5123,-3.5226,-3.5225,-3.5224,-3.5224,-3.5223,-3.5358,-3.5373,-3.5362,-3.5368,-3.5362,-3.536,-3.5371,-3.5355,-3.5361,-3.5361,-3.5342,-3.5353,-3.5343,-3.5337,-3.5332,-3.5339,-3.5321,-3.5332,-3.5334,-3.5337,-3.5342,-3.5251,-3.5339,-3.5339,-3.5339,-3.5338,-3.5338,0,-3.5457,-3.5447,-3.5454,-3.545,-3.5455,-3.5427,-3.5422,-3.5427,-3.5437,-3.543,-3.5433,-3.544,-3.5445,-3.5425,-3.5426,-3.5436,-3.5423,-3.5437,-3.5436,-3.5434,-3.5359,-3.5352,-3.5448,-3.5448,-3.5448,-3.5448,-3.5448,-3.5448,-3.5509,-3.5533,-3.5518,-3.5537,-3.5527,-3.5537,-3.5536,-3.5533,-3.5526,-3.5537,-3.554,-3.5527,-3.5514,-3.5514,-3.5516,-3.551,-3.5511,-3.553,-3.552,-3.545,-3.5439,-3.5429,-3.5422,-3.5531,-3.5531,-3.5593,-3.5594,-3.5594]}]]